{"data":{"norad_id":63739,"epoch":"2026-09-21T09:21:58.854528Z","epoch_age_seconds":128104,"freshness":"FRESH","line1":"1 63739U 25088R   26264.39026452  .00000971  00000+0  15644-3 0  9991","line2":"2 63739  51.9050 315.2608 0000538  94.2793 265.8231 14.79925954 76796","mean_motion":14.79925954,"eccentricity":5.38e-5,"inclination_deg":51.905,"raan_deg":315.2608,"arg_perigee_deg":94.2793,"mean_anomaly_deg":265.8231,"bstar":0.00015644,"rev_number":7679,"period_min":97.302165429825,"perigee_km":629.18085775514,"apogee_km":629.93488572334,"semimajor_km":7007.6948717392,"source":"CELESTRAK","updated_at":"2026-09-22T09:00:29.319657Z"}}